User: anonymous   Login
Location: Albany
(35.0000°S, 118.0000°E)
Time: 10:50:06
(UTC-05:00)
Language:

CZ-4B R/B - Orbit

View from above orbital plane
View from above orbital plane
View from above satellite
View from above satellite

Ground track
Ground track

The orbit data is extracted from the following two-line orbital elements,

1 33410U 08053C   17055.90039578 -.00000079  00000-0 -53590-6 0  9992
2 33410  97.7154  27.6114 0119916 207.4650 152.0203 14.98140463453979
Epoch (UTC): 24 February 2017 21:36:34
Eccentricity: 0.0119916
inclination: 97.7154°
perigee height: 489 km
apogee height: 656 km
right ascension of ascending node: 27.6114°
argument of perigee: 207.4650°
revolutions per day: 14.98140463
mean anomaly at epoch: 152.0203°
orbit number at epoch: 45397

The dashed part of the orbit path shows where the satellite is in the earth's shadow,  

DLR